This demonstration page uses our WeatherBlox Daily Observations layout. Learn more.

Left ArrowRight Arrow

39.51506, -84.39828

Hourly Observations for October 15, 2015

Temp ( °F °C ) Dew Point ( °F °C ) Humidity (%) Winds ( mph kmh ) Pressure ( in mb ) Visibility ( mi km ) Precip ( " mm )
12:15 am 00:15 Clear 42 5.8 38 3.4 85 85 N N/A 30.09 1019 10 16 N/A
12:35 am 00:35 Clear 44 6.4 39 4.1 85 85 N N/A 30.09 1019 10 16 N/A
12:55 am 00:55 Clear 43 6.2 38 3.6 84 84 N N/A 30.09 1019 10 16 N/A
1:15 am 01:15 Clear 43 6.3 39 3.8 84 84 N N/A 30.09 1019 10 16 N/A
1:35 am 01:35 Clear 42 5.7 38 3.3 85 85 N N/A 30.09 1019 10 16 N/A
1:55 am 01:55 Clear 42 5.6 38 3.5 87 87 N N/A 30.09 1019 10 16 N/A
2:15 am 02:15 Clear with Mist and Fog 40 4.7 37 3 89 89 N N/A 30.09 1019 3 5 N/A
2:35 am 02:35 Clear 42 5.4 38 3.6 88 88 N N/A 30.09 1019 10 16 N/A
2:55 am 02:55 Clear 41 5.2 38 3.4 88 88 N N/A 30.09 1019 10 16 N/A
3:15 am 03:15 Clear with Mist and Fog 39 4.1 37 2.5 89 89 N N/A 30.12 1020 4 6 N/A
3:35 am 03:35 Clear 39 4.1 36 2.4 89 89 N N/A 30.12 1020 10 16 N/A
3:55 am 03:55 Clear with Mist and Fog 40 4.6 37 3 89 89 N N/A 30.09 1019 5 8 N/A
4:15 am 04:15 Clear with Mist and Fog 39 4 37 2.5 90 90 N N/A 30.12 1020 3 5 N/A
4:35 am 04:35 Mostly Cloudy with Fog 39 4 37 2.5 90 90 N N/A 30.12 1020 0 0 N/A
4:55 am 04:55 Mostly Cloudy with Fog 39 3.9 36 2.4 90 90 N N/A 30.12 1020 1 1 N/A
5:15 am 05:15 Clear with Mist and Fog 39 4 37 2.5 90 90 N N/A 30.12 1020 5 8 N/A
5:35 am 05:35 Mostly Cloudy with Fog 39 3.8 36 2.3 90 90 N N/A 30.12 1020 1 1 N/A
5:55 am 05:55 Mostly Cloudy with Fog 37 2.6 34 1.1 90 90 N N/A 30.12 1020 1 1 N/A
6:15 am 06:15 Mostly Cloudy with Fog 38 3.5 36 2 90 90 N N/A 30.15 1021 1 1 N/A
6:35 am 06:35 Mostly Cloudy with Mist and Fog 37 2.7 34 1.2 90 90 N N/A 30.15 1021 2 3 N/A
6:55 am 06:55 Mostly Cloudy with Fog 37 2.6 34 1.1 90 90 N N/A 30.15 1021 0 0 N/A
7:15 am 07:15 Mostly Cloudy with Mist and Fog 38 3.6 36 2.1 90 90 N N/A 30.15 1021 1 2 N/A
7:35 am 07:35 Mostly Cloudy with Mist and Fog 37 2.6 34 1.3 91 91 N N/A 30.15 1021 1 2 N/A
7:55 am 07:55 Mostly Cloudy with Mist and Fog 37 2.6 34 1.1 90 90 N N/A 30.15 1021 1 2 N/A
8:15 am 08:15 Sunny with Mist and Fog 39 4 37 2.7 91 91 N N/A 30.15 1021 3 5 N/A
8:35 am 08:35 Sunny 39 4 37 2.7 91 91 N N/A 30.18 1022 10 16 N/A
8:55 am 08:55 Sunny 41 5.2 39 3.9 91 91 N N/A 30.15 1021 10 16 N/A
9:15 am 09:15 Sunny 44 6.7 42 5.3 91 91 SSW 3 6 30.15 1021 10 16 N/A
9:35 am 09:35 Sunny 49 9.3 46 7.7 90 90 SSW 5 7 30.15 1021 10 16 N/A
9:55 am 09:55 Sunny 49 9.6 43 6.2 80 80 SSW 5 7 30.15 1021 10 16 N/A
10:15 am 10:15 Sunny 53 11.9 44 6.4 69 69 SW 7 11 30.15 1021 7 11 N/A
10:35 am 10:35 Sunny 55 12.5 41 5.2 61 61 SW 6 9 30.15 1021 10 16 N/A
10:55 am 10:55 Sunny 57 13.8 41 4.9 55 55 SW 7 11 30.15 1021 10 16 N/A
11:15 am 11:15 Sunny 60 15.3 41 4.9 50 50 SW 8 13 30.15 1021 10 16 N/A
11:35 am 11:35 Sunny 61 16 39 3.7 44 44 SSW 7 11 30.15 1021 10 16 N/A
11:55 am 11:55 Sunny 63 17.1 37 2.8 39 39 SSW 9 15 30.09 1019 10 16 N/A
12:15 pm 12:15 Sunny 65 18.5 37 2.8 35 35 SW 8 13 30.09 1019 10 16 N/A
12:35 pm 12:35 Sunny 69 20.8 37 3 31 31 SW 12 19 30.09 1019 10 16 N/A
12:55 pm 12:55 Sunny 69 20.8 35 1.4 28 28 SW 9 15 30.09 1019 10 16 N/A
1:15 pm 13:15 Sunny 69 20.8 33 0.8 26 26 SW 10 17 30.09 1019 10 16 N/A
1:35 pm 13:35 Sunny 69 20.8 32 -0.2 25 25 SW 10 17 30.06 1018 10 16 N/A
1:55 pm 13:55 Sunny 69 20.8 31 -0.3 24 24 SSW 12 19 30.06 1018 10 16 N/A
2:15 pm 14:15 Sunny 69 20.8 31 -0.7 24 24 SW 10 17 30.03 1017 10 16 N/A
2:35 pm 14:35 Sunny 70 21.3 31 -0.8 23 23 SW 13 20 30.03 1017 10 16 N/A
2:55 pm 14:55 Sunny 71 21.8 30 -1.3 21 21 SW 12 19 30.00 1016 10 16 N/A
3:15 pm 15:15 Sunny 71 21.8 29 -1.7 21 21 SW 9 15 30.00 1016 10 16 N/A
3:35 pm 15:35 Sunny 72 22.3 29 -1.6 20 20 SSW 9 15 30.00 1016 10 16 N/A
3:55 pm 15:55 Sunny 72 22.4 31 -0.3 22 22 SSW 10 17 30.00 1016 10 16 N/A
4:15 pm 16:15 Sunny 73 23 31 -0.3 21 21 SW 14 22 29.97 1015 10 16 N/A
4:35 pm 16:35 Sunny 73 22.8 29 -1.4 20 20 SW 12 19 29.97 1015 10 16 N/A
4:55 pm 16:55 Sunny 73 22.5 28 -2.1 19 19 SSW 10 17 29.97 1015 10 16 N/A
5:15 pm 17:15 Sunny 70 21.2 28 -2.1 21 21 SSW 13 20 29.97 1015 10 16 N/A
5:35 pm 17:35 Sunny 69 20.8 30 -1.2 23 23 SSW 7 11 29.97 1015 10 16 N/A
5:55 pm 17:55 Partly Cloudy 69 20.8 31 -0.6 24 24 SSW 12 19 29.94 1014 10 16 N/A
6:15 pm 18:15 Mostly Cloudy 69 20.8 32 undefined 25 25 SSW 12 19 29.94 1014 10 16 N/A
6:35 pm 18:35 Mostly Cloudy 69 20.8 35 1.4 28 28 SW 8 13 29.97 1015 10 16 N/A
6:55 pm 18:55 Partly Cloudy 67 19.5 35 1.7 31 31 SW 9 15 29.97 1015 10 16 N/A
7:15 pm 19:15 Partly Cloudy 64 18 35 1.8 34 34 SW 8 13 29.97 1015 10 16 N/A
7:35 pm 19:35 Clear 64 18 36 2.1 35 35 SW 8 13 29.97 1015 10 16 N/A
7:55 pm 19:55 Clear 63 17.3 36 2.4 37 37 SW 7 11 29.97 1015 10 16 N/A
8:15 pm 20:15 Partly Cloudy 61 16.1 38 3.5 43 43 SW 6 9 29.97 1015 10 16 N/A
8:35 pm 20:35 Partly Cloudy 61 16 39 3.9 45 45 SW 5 7 29.97 1015 10 16 N/A
8:55 pm 20:55 Partly Cloudy 57 13.9 40 4.6 54 54 SSW 3 6 30.00 1016 10 16 N/A
9:15 pm 21:15 Mostly Cloudy 57 13.8 44 6.5 62 62 WSW 3 6 30.00 1016 10 16 N/A
9:35 pm 21:35 Mostly Cloudy 56 13.5 44 6.7 64 64 N N/A 30.00 1016 10 16 N/A
9:55 pm 21:55 Partly Cloudy 57 14 42 5.8 58 58 W 5 7 30.00 1016 10 16 N/A
10:15 pm 22:15 Mostly Cloudy 60 15.3 42 5.7 53 53 W 5 7 30.00 1016 10 16 N/A
10:35 pm 22:35 Mostly Cloudy 60 15.3 39 4.1 47 47 W 8 13 30.00 1016 10 16 N/A
10:55 pm 22:55 Partly Cloudy 60 15.3 38 3.6 46 46 W 6 9 30.03 1017 10 16 N/A
11:15 pm 23:15 Clear 60 15.3 39 3.7 46 46 W 8 13 30.03 1017 10 16 N/A
11:35 pm 23:35 Clear 61 15.9 37 2.5 41 41 WNW 9 15 30.00 1016 10 16 N/A
11:55 pm 23:55 Clear 61 16.1 32 -0.1 33 33 NW 12 19 30.03 1017 10 16 N/A

Powered by AerisWeather